Weather History for KAIK - March, 2012

Change the Weather History Date:

Tuesday, March 13, 2012

  Actual Average Record
Temperature  
Mean Temperature 66 °F -  
Max Temperature 73 °F 72 °F 77 °F (2011)
Min Temperature 59 °F 44 °F 33 °F (2014)
Cooling Degree Days 1    
Growing Degree Days 16 (Base 50)    
Moisture  
Dew Point 60 °F    
Average Humidity 84    
Maximum Humidity 100    
Minimum Humidity 69    
Precipitation  
Precipitation 0.00 in - - ()
Sea Level Pressure  
Sea Level Pressure 30.28 in    
Wind  
Wind Speed 6 mph (SSW)    
Max Wind Speed 15 mph    
Max Gust Speed 22 mph    
Visibility 10 miles    
Events Rain , Thunderstorm    
Averages and records for this station are not official NWS values.
T = Trace of Precipitation, MM = Missing Value Source: NWS Daily Summary

Daily Weather History Graph

Daily Weather History Graph

Search for Another Location

Airport or City:

Trip Planner

Search our weather history database for the weather conditions in past years. The results will help you decide how hot, cold, wet, or windy it might be!

Date:

Astronomy

Mar. 13, 2012 Rise Set
Actual Time 7:39 AM EDT 7:33 PM EDT
Civil Twilight 7:14 AM EDT 7:58 PM EDT
Nautical Twilight 6:45 AM EDT 8:27 PM EDT
Astronomical Twilight 6:16 AM EDT 8:56 PM EDT
Moon 12:45 AM EDT (3/13) 11:09 AM EDT (3/13)
Length of Visible Light 12h 43m
Length of Day
11h 54m
Waning Gibbous, 66% of the Moon is Illuminated
Mar 13
Waning Gibbous
Mar 14
Last Quarter
Mar 22
New
Mar 30
First Quarter
Apr 6
Full

Hourly Weather History & Observations

Time (EDT) Temp. Dew Point Humidity Pressure Visibility Wind Dir Wind Speed Gust Speed Precip Events Conditions
12:15 AM 62.6 °F 55.4 °F 77% 30.31 in 10.0 mi SSE 6.9 mph - N/A   Scattered Clouds
12:35 AM 62.6 °F 55.4 °F 77% 30.31 in 10.0 mi South 5.8 mph - N/A Rain Light Rain
12:55 AM 60.8 °F 57.2 °F 88% 30.31 in 10.0 mi South 3.5 mph - N/A Rain Rain
1:15 AM 60.8 °F 57.2 °F 88% 30.30 in 10.0 mi SSE 4.6 mph - N/A   Light Drizzle
1:35 AM 59.0 °F 55.4 °F 88% 30.30 in 10.0 mi South 3.5 mph - N/A   Clear
1:55 AM 59.0 °F 55.4 °F 88% 30.30 in 10.0 mi South 3.5 mph - N/A   Scattered Clouds
2:15 AM 59.0 °F 57.2 °F 94% 30.30 in 10.0 mi Calm Calm - N/A   Overcast
2:55 AM 60.8 °F 57.2 °F 88% 30.30 in 10.0 mi South 4.6 mph - N/A   Overcast
3:15 AM 59.0 °F 55.4 °F 88% 30.30 in 10.0 mi SSE 3.5 mph - N/A   Mostly Cloudy
3:35 AM 59.0 °F 55.4 °F 88% 30.29 in 10.0 mi South 3.5 mph - N/A   Mostly Cloudy
3:55 AM 59.0 °F 55.4 °F 88% 30.29 in 10.0 mi South 3.5 mph - N/A   Overcast
4:15 AM 59.0 °F 55.4 °F 88% 30.28 in 10.0 mi South 4.6 mph - N/A   Overcast
4:35 AM 60.8 °F 55.4 °F 82% 30.28 in 10.0 mi South 3.5 mph - N/A   Overcast
4:55 AM 60.8 °F 55.4 °F 82% 30.28 in 10.0 mi South 4.6 mph - N/A   Overcast
5:15 AM 60.8 °F 55.4 °F 82% 30.28 in 10.0 mi South 3.5 mph - N/A   Overcast
5:35 AM 60.8 °F 55.4 °F 82% 30.28 in 10.0 mi South 3.5 mph - N/A   Overcast
5:55 AM 60.8 °F 57.2 °F 88% 30.28 in 10.0 mi South 4.6 mph - N/A   Overcast
6:15 AM 60.8 °F 57.2 °F 88% 30.28 in 10.0 mi South 4.6 mph - N/A   Overcast
6:35 AM 60.8 °F 57.2 °F 88% 30.29 in 10.0 mi South 5.8 mph - N/A   Overcast
6:55 AM 60.8 °F 57.2 °F 88% 30.30 in 10.0 mi SSW 5.8 mph - N/A   Overcast
7:15 AM 60.8 °F 57.2 °F 88% 30.30 in 10.0 mi SSW 8.1 mph - N/A Rain Light Rain
7:35 AM 59.0 °F 59.0 °F 100% 30.30 in 10.0 mi South 4.6 mph - N/A Rain Light Rain
7:55 AM 59.0 °F 59.0 °F 100% 30.30 in 10.0 mi South 5.8 mph - N/A   Overcast
8:55 AM 60.8 °F 60.8 °F 100% 30.31 in 10.0 mi SSW 6.9 mph - N/A   Overcast
9:15 AM 60.8 °F 60.8 °F 100% 30.31 in 10.0 mi SSW 6.9 mph - N/A   Overcast
9:35 AM 62.6 °F 60.8 °F 94% 30.32 in 10.0 mi SW 8.1 mph - N/A   Overcast
9:55 AM 62.6 °F 59.0 °F 88% 30.32 in 10.0 mi SW 8.1 mph - N/A   Overcast
10:15 AM 64.4 °F 59.0 °F 83% 30.31 in 10.0 mi SW 6.9 mph - N/A   Scattered Clouds
10:35 AM 68.0 °F 60.8 °F 78% 30.31 in 10.0 mi SW 10.4 mph - N/A   Clear
10:55 AM 68.0 °F 60.8 °F 78% 30.31 in 10.0 mi SW 9.2 mph - N/A   Scattered Clouds
11:15 AM 69.8 °F 60.8 °F 73% 30.30 in 10.0 mi SW 9.2 mph - N/A   Scattered Clouds
11:35 AM 71.6 °F 62.6 °F 73% 30.30 in 10.0 mi WSW 10.4 mph - N/A Thunderstorm Clear
11:55 AM 71.6 °F 62.6 °F 73% 30.29 in 10.0 mi WSW 10.4 mph - N/A Thunderstorm Thunderstorm
12:15 PM 73.4 °F 62.6 °F 69% 30.29 in 10.0 mi SW 11.5 mph - N/A   Mostly Cloudy
12:35 PM 73.4 °F 62.6 °F 69% 30.29 in 10.0 mi South 5.8 mph - N/A   Scattered Clouds
12:55 PM 73.4 °F 62.6 °F 69% 30.29 in 10.0 mi WSW 10.4 mph - N/A Thunderstorm Thunderstorm
1:15 PM 71.6 °F 60.8 °F 69% 30.30 in 10.0 mi WSW 10.4 mph - N/A Thunderstorm Thunderstorm
1:35 PM 69.8 °F 60.8 °F 73% 30.30 in 10.0 mi SW 15.0 mph - N/A   Overcast
1:55 PM 64.4 °F 60.8 °F 88% 30.31 in 7.0 mi WSW 12.7 mph 21.9 mph N/A Rain Rain
2:15 PM 62.6 °F 62.6 °F 100% 30.29 in 7.0 mi West 8.1 mph - N/A Rain , Thunderstorm Rain
2:35 PM 62.6 °F 62.6 °F 100% 30.28 in 10.0 mi SW 6.9 mph - N/A Rain , Thunderstorm Rain
2:55 PM 62.6 °F 62.6 °F 100% 30.26 in 10.0 mi WSW 9.2 mph - N/A Rain , Thunderstorm Light Thunderstorms and Rain
3:15 PM 62.6 °F - N/A% 30.25 in 10.0 mi WSW 6.9 mph - N/A Rain , Thunderstorm Light Thunderstorms and Rain
3:35 PM 62.6 °F - N/A% 30.24 in 10.0 mi WSW 11.5 mph - N/A   Scattered Clouds
3:55 PM 66.2 °F 66.2 °F 100% 30.24 in 10.0 mi WSW 9.2 mph - N/A   Clear
4:15 PM 68.0 °F 66.2 °F 94% 30.24 in 10.0 mi WSW 9.2 mph - N/A   Scattered Clouds
4:35 PM 69.8 °F 62.6 °F 78% 30.23 in 10.0 mi WSW 4.6 mph - N/A   Mostly Cloudy
4:55 PM 69.8 °F 62.6 °F 78% 30.23 in 10.0 mi SW 6.9 mph - N/A   Scattered Clouds
5:15 PM 71.6 °F 60.8 °F 69% 30.22 in 10.0 mi SW 5.8 mph - N/A   Clear
5:55 PM 71.6 °F 62.6 °F 73% 30.22 in 10.0 mi South 6.9 mph - N/A   Clear
6:15 PM 71.6 °F 62.6 °F 73% 30.22 in 10.0 mi SSW 8.1 mph - N/A Thunderstorm Clear
6:35 PM 69.8 °F 62.6 °F 78% 30.22 in 10.0 mi SW 8.1 mph - N/A   Clear
6:55 PM 69.8 °F 60.8 °F 73% 30.22 in 10.0 mi SSW 6.9 mph - N/A   Clear
7:15 PM 68.0 °F 60.8 °F 78% 30.23 in 10.0 mi South 5.8 mph - N/A   Clear
7:35 PM 64.4 °F 60.8 °F 88% 30.23 in 10.0 mi South 5.8 mph - N/A   Clear
7:55 PM 64.4 °F 60.8 °F 88% 30.23 in 10.0 mi South 5.8 mph - N/A   Clear
8:15 PM 64.4 °F 60.8 °F 88% 30.23 in 10.0 mi South 5.8 mph - N/A   Clear
8:35 PM 64.4 °F 60.8 °F 88% 30.23 in 10.0 mi South 8.1 mph - N/A   Clear
8:55 PM 62.6 °F 60.8 °F 94% 30.24 in 10.0 mi South 5.8 mph - N/A   Clear
9:15 PM 62.6 °F 62.6 °F 100% 30.24 in 10.0 mi South 5.8 mph - N/A   Clear
9:35 PM 62.6 °F 62.6 °F 100% 30.24 in 10.0 mi South 5.8 mph - N/A   Clear
9:55 PM 62.6 °F 62.6 °F 100% 30.24 in 10.0 mi SSW 6.9 mph - N/A   Clear
10:15 PM 60.8 °F 60.8 °F 100% 30.24 in 10.0 mi South 6.9 mph - N/A   Clear
10:35 PM 62.6 °F 62.6 °F 100% 30.25 in 10.0 mi SSW 6.9 mph - N/A Thunderstorm Clear
10:55 PM 62.6 °F 62.6 °F 100% 30.25 in 10.0 mi South 6.9 mph - N/A   Clear
11:15 PM 62.6 °F 62.6 °F 100% 30.25 in 10.0 mi South 6.9 mph - N/A   Clear
11:35 PM 60.8 °F 60.8 °F 100% 30.26 in 10.0 mi SSW 4.6 mph - N/A   Clear
11:55 PM 60.8 °F 60.8 °F 100% 30.26 in 10.0 mi SSW 6.9 mph - N/A   Clear